Location: ???????
(37.9175°N, 24.0235°E)
Time: 11:32:13
(UTC+00:00)

Daily predictions for brighter satellites

Satellite Brightness Start Highest point End
(mag) Time Altitude Azimuth Time Altitude Azimuth Time Altitude Azimuth
Cosmos 1437 Rocket 2.8 15:27:06 10° N 15:30:43 50° E 15:34:22 10° SSE
CORIOLIS 4.3 15:27:42 10° SE 15:32:50 51° ENE 15:38:00 10° N
USA 276 1.3 15:32:23 10° SW 15:34:45 88° NNW 15:37:13 10° NE
CZ-2C R/B 2.5 15:31:45 10° SSE 15:35:15 73° ENE 15:38:49 10° N
Cosmos 2151 3.0 15:32:49 10° N 15:37:02 60° E 15:41:14 10° SSE
Helios 1B rocket 2.8 15:35:12 10° S 15:39:05 65° WSW 15:43:00 10° NNW
CZ-4B R/B 4.3 15:36:17 10° SE 15:40:38 29° ENE 15:44:56 10° N
CZ-4B R/B 3.8 15:38:17 10° SSE 15:41:44 45° ENE 15:45:11 10° N
Cosmos 1812 3.7 15:40:29 10° SE 15:43:31 24° E 15:46:33 10° NE
APEX 4.1 15:48:12 10° SSE 15:50:43 21° ESE 15:52:24 14° ENE
SKYMED 2 4.5 15:47:48 10° NE 15:51:34 28° E 15:55:19 10° SSE
Meteor 1-31 Rocket 2.6 15:48:04 10° SSE 15:51:42 63° ENE 15:55:22 10° N
SL-16 R/B 2.2 15:47:53 10° NNW 15:53:36 86° ENE 15:59:15 10° SSE
Cosmos 1818 4.4 15:50:45 10° S 15:55:30 32° ESE 15:59:44 13° NE
Lacrosse 4 Rocket 3.0 15:54:54 10° NNE 15:57:29 15° NE 15:58:24 14° ENE
Cosmos 2344 3.7 15:51:02 10° SSW 15:58:54 55° ESE 16:05:57 10° NE
Cosmos 1782 4.1 15:57:54 10° SE 16:00:47 20° E 16:02:24 16° ENE
CZ-2C R/B 1.2 15:58:27 10° WSW 16:00:47 36° S 16:02:44 13° ESE
Radarsat Rocket 4.4 15:55:47 10° SE 16:01:02 37° ENE 16:06:23 10° N
H-2A R/B 2.5 16:03:22 10° WSW 16:05:46 31° S 16:11:07 10° ESE
Cosmos 1943 3.8 16:02:32 10° N 16:07:34 32° ENE 16:12:35 10° ESE
Cosmos 1544 4.2 16:04:32 10° NNW 16:07:37 41° W 16:10:42 10° SSW
Cosmos 1269 Rocket 4.2 16:04:08 10° NNW 16:09:26 80° WSW 16:14:42 10° SSE
Cosmos 1812 Rocket 3.7 16:05:43 10° SSE 16:09:50 47° E 16:14:01 10° NNE
Cosmos 1076 Rocket 4.0 16:08:22 10° NNW 16:12:41 63° W 16:16:57 10° S
Tiangong -1.2 16:11:16 10° W 16:14:19 47° SSW 16:17:06 12° SE
ADEOS 4.2 16:09:52 10° SE 16:14:24 31° ENE 16:18:58 10° N
NOSS 3-4 (A) 4.1 16:09:16 10° NW 16:16:32 81° WSW 16:24:48 10° SSE
NOSS 3-4 (C) 4.1 16:09:25 10° NW 16:16:37 81° WSW 16:24:46 10° SSE
SL-08 R/B 3.6 16:15:08 11° NNE 16:19:16 42° E 16:23:39 10° S
USA 234 3.9 16:16:19 10° NE 16:22:29 49° NW 16:28:43 10° WSW
Cosmos 44 3.3 16:17:39 10° NNW 16:23:01 79° ENE 16:28:04 10° SSE
Cosmos 1602 3.7 16:22:51 10° N 16:26:34 78° W 16:30:17 10° S
Meteor 1-25 Rocket 4.3 16:21:41 10° N 16:27:13 52° ENE 16:32:38 10° SSE
Hubble Space Telescope 3.3 16:26:05 10° SW 16:28:26 15° SSW 16:30:47 10° SSE
USA 308 3.0 16:26:51 10° NW 16:27:44 22° WNW 16:27:44 22° WNW
Cosmos 1666 3.5 16:27:54 10° NNW 16:31:19 48° W 16:34:43 10° S
USA 307 4.1 16:28:45 10° NNW 16:31:19 21° NNE 16:31:19 21° NNE
Cosmos 2026 Rocket 4.0 16:28:35 10° S 16:34:38 58° E 16:40:48 10° NNE
ISS -2.7 16:32:52 10° NNW 16:35:28 30° NNE 16:35:28 30° NNE
COSMO-SKYMED 1 2.6 16:35:22 10° N 16:39:44 79° WNW 16:44:03 10° SSW
Cosmos 2195 Rocket 4.4 16:34:25 10° S 16:40:45 78° E 16:47:03 10° N
ATLAS CENTAUR R/B 3.3 16:38:02 10° NNW 16:43:05 53° NE 16:51:14 14° ESE
Lacrosse 5 1.9 16:39:16 10° SSW 16:44:11 57° SE 16:45:41 40° ENE
CBERS 1 LM4 rocket 4.4 16:40:53 10° SSE 16:45:47 82° WSW 16:50:34 10° NNW
Cosmos 1092 Rocket 3.8 16:41:43 10° S 16:47:50 77° E 16:53:58 10° N
Cosmos 1933 3.1 16:44:46 10° S 16:48:44 72° E 16:49:48 46° NNE
Cosmos 1140 Rocket 3.3 16:48:36 10° NNW 16:53:48 83° ENE 16:58:55 10° SSE
Cosmos 2263 Rocket 4.3 17:02:16 10° WSW 17:06:24 21° NW 17:10:35 10° N
Cosmos 1844 Rocket 2.5 17:01:45 10° SSW 17:07:18 81° ESE 17:08:55 48° NNE
Meteor 1-5 Rocket 4.2 17:03:25 10° N 17:09:02 59° ENE 17:14:48 10° SSE
Cosmos 2221 3.2 17:04:52 10° S 17:07:43 41° SSE 17:07:43 41° SSE
SL-8 R/B 4.3 17:08:07 10° NW 17:12:00 44° N 17:12:00 44° N
COSMOS 2455 4.0 17:09:32 10° S 17:12:38 26° SSE 17:12:38 26° SSE
Cosmos 1603 3.6 17:18:47 10° NNW 17:24:29 85° WSW 17:26:13 47° SSE
Cosmos 2251 Rocket 3.9 17:20:34 10° NNW 17:25:52 65° WSW 17:31:10 10° S
Cosmos 407 Rocket 3.8 17:25:26 10° NNW 17:30:30 61° WSW 17:33:26 25° S
ATLAS 2AS CENTAUR R/B 3.7 17:26:17 10° NNW 17:30:16 30° N 17:30:16 30° N
Cosmos 2056 Rocket 3.6 17:27:51 10° SSW 17:33:11 74° WNW 17:33:15 74° WNW
Lacrosse 4 Rocket 3.0 17:32:02 10° NW 17:34:32 31° NW 17:34:32 31° NW
Timation 2 Rocket 4.3 17:38:16 10° SW 17:44:06 57° WNW 17:45:09 50° NNW
Cosmos 1241 Rocket 4.5 17:38:55 10° SSW 17:45:20 78° WNW 17:45:23 78° NW
Lacrosse 5 4.3 18:23:12 10° W 18:24:56 18° WNW 18:24:56 18° WNW
